Isfana, Tajikistan

1:30 PM +05 on February 26, 2017 (GMT +0500)
Khudzhand

Weather History for UTDL - October, 2012

Change the Weather History Date:

Thursday, October 4, 2012

  Actual Average Record
Temperature  
Mean Temperature 65 °F -  
Max Temperature 77 °F - - ()
Min Temperature 53 °F - - ()
Growing Degree Days 15 (Base 50)    
Moisture  
Dew Point 36 °F    
Average Humidity 38    
Maximum Humidity 55    
Minimum Humidity 19    
Precipitation  
Precipitation 0.00 in - - ()
Sea Level Pressure  
Sea Level Pressure 30.04 in    
Wind  
Wind Speed 6 mph ()    
Max Wind Speed 11 mph    
Max Gust Speed 16 mph    
Visibility 6.2 miles    
Events      
T = Trace of Precipitation, MM = Missing Value Source: Averaged Metar Reports

Daily Weather History Graph

Daily Weather History Graph

Search for Another Location

Airport or City:

Trip Planner

Search our weather history database for the weather conditions in past years. The results will help you decide how hot, cold, wet, or windy it might be!

Date:

Astronomy

Oct. 04, 2012 Rise Set
Actual Time 7:20 AM +06 6:58 PM +06
Civil Twilight 6:53 AM +06 7:25 PM +06
Nautical Twilight 6:22 AM +06 7:56 PM +06
Astronomical Twilight 5:50 AM +06 8:28 PM +06
Moon 9:14 PM +06 (10/4) 11:14 AM +06 (10/4)
Length of Visible Light 12h 32m
Length of Day
11h 37m
Waning Gibbous, 85% of the Moon is Illuminated
Oct 4
Waning Gibbous
Oct 8
Last Quarter
Oct 15
New
Oct 22
First Quarter
Oct 30
Full

Hourly Weather History & Observations

Time (+06) Temp. Dew Point Humidity Pressure Visibility Wind Dir Wind Speed Gust Speed Precip Events Conditions
12:00 AM 57.2 °F 37.4 °F 48% 30.06 in 6.2 mi West 6.7 mph - N/A   Mostly Cloudy
12:30 AM 57.2 °F 37.4 °F 48% 30.06 in 6.2 mi WSW 8.9 mph - N/A   Mostly Cloudy
1:00 AM 57.2 °F 37.4 °F 48% 30.06 in 6.2 mi WSW 6.7 mph - N/A   Mostly Cloudy
1:30 AM 57.2 °F 35.6 °F 44% 30.06 in 6.2 mi West 6.7 mph - N/A   Mostly Cloudy
2:00 AM 55.4 °F 37.4 °F 51% 30.04 in 6.2 mi WSW 6.7 mph - N/A   Mostly Cloudy
2:30 AM 55.4 °F 35.6 °F 47% 30.06 in 6.2 mi West 6.7 mph - N/A   Mostly Cloudy
3:00 AM 55.4 °F 35.6 °F 47% 30.04 in 6.2 mi West 6.7 mph - N/A   Mostly Cloudy
3:30 AM 55.4 °F 37.4 °F 51% 30.04 in 6.2 mi WSW 6.7 mph - N/A   Scattered Clouds
4:00 AM 55.4 °F 35.6 °F 47% 30.04 in 6.2 mi West 6.7 mph - N/A   Scattered Clouds
4:30 AM 53.6 °F 35.6 °F 51% 30.04 in 6.2 mi WSW 6.7 mph - N/A   Scattered Clouds
5:00 AM 53.6 °F 35.6 °F 51% 30.06 in 6.2 mi WSW 6.7 mph - N/A   Scattered Clouds
5:30 AM 55.4 °F 35.6 °F 47% 30.06 in 6.2 mi WSW 6.7 mph - N/A   Scattered Clouds
6:00 AM 57.2 °F 33.8 °F 41% 30.06 in 6.2 mi WSW 8.9 mph - N/A   Mostly Cloudy
6:30 AM 55.4 °F 33.8 °F 44% 30.01 in 6.2 mi SW 8.9 mph - N/A   Mostly Cloudy
7:00 AM 55.4 °F 33.8 °F 44% 30.06 in 6.2 mi SW 8.9 mph - N/A   Mostly Cloudy
7:30 AM 53.6 °F 33.8 °F 47% 30.06 in 6.2 mi WSW 6.7 mph - N/A   Mostly Cloudy
8:00 AM 55.4 °F 35.6 °F 47% 30.01 in 6.2 mi SW 6.7 mph - N/A   Mostly Cloudy
8:30 AM 57.2 °F 37.4 °F 48% 30.06 in 6.2 mi WSW 4.5 mph - N/A   Mostly Cloudy
9:00 AM 57.2 °F 35.6 °F 44% 30.06 in 6.2 mi WSW 4.5 mph - N/A   Mostly Cloudy
9:30 AM 64.4 °F 33.8 °F 32% 30.06 in 6.2 mi SW 4.5 mph - N/A   Mostly Cloudy
10:00 AM 68.0 °F 30.2 °F 24% 30.06 in 6.2 mi West 4.5 mph - N/A   Mostly Cloudy
10:30 AM 69.8 °F 32.0 °F 25% 30.06 in 6.2 mi NW 2.2 mph - N/A   Mostly Cloudy
11:00 AM 71.6 °F 30.2 °F 22% 30.06 in 6.2 mi NNW 2.2 mph - N/A   Mostly Cloudy
11:30 AM 73.4 °F 30.2 °F 20% 30.06 in 6.2 mi West 8.9 mph - N/A   Mostly Cloudy
12:00 PM 73.4 °F 30.2 °F 20% 30.06 in 6.2 mi West 11.2 mph - N/A   Scattered Clouds
12:30 PM 75.2 °F 30.2 °F 19% 30.06 in 6.2 mi WSW 11.2 mph - N/A   Scattered Clouds
1:00 PM 75.2 °F 30.2 °F 19% 30.04 in 6.2 mi WSW 11.2 mph - N/A   Partly Cloudy
1:30 PM 75.2 °F 32.0 °F 21% 30.04 in 6.2 mi WSW 8.9 mph - N/A   Partly Cloudy
2:00 PM 77.0 °F 32.0 °F 19% 30.04 in 6.2 mi SW 8.9 mph - N/A   Partly Cloudy
2:30 PM 77.0 °F 32.0 °F 19% 30.04 in 6.2 mi WSW 8.9 mph 15.7 mph N/A   Partly Cloudy
3:00 PM 75.2 °F 33.8 °F 22% 30.04 in 6.2 mi West 8.9 mph 15.7 mph N/A   Scattered Clouds
3:30 PM 77.0 °F 35.6 °F 22% 30.01 in 6.2 mi West 8.9 mph - N/A   Scattered Clouds
4:00 PM 77.0 °F 35.6 °F 22% 30.01 in 6.2 mi WNW 8.9 mph 15.7 mph N/A   Scattered Clouds
4:30 PM 77.0 °F 35.6 °F 22% 30.01 in 6.2 mi WNW 8.9 mph - N/A   Mostly Cloudy
5:00 PM 75.2 °F 35.6 °F 24% 30.01 in 6.2 mi NW 6.7 mph - N/A   Overcast
5:30 PM 75.2 °F 35.6 °F 24% 30.01 in 6.2 mi West 8.9 mph - N/A   Overcast
6:00 PM 75.2 °F 37.4 °F 25% 30.01 in 6.2 mi West 6.7 mph - N/A   Overcast
6:30 PM 73.4 °F 35.6 °F 25% 30.01 in 6.2 mi West 6.7 mph - N/A   Overcast
7:00 PM 69.8 °F 41.0 °F 35% 30.01 in 6.2 mi SW 6.7 mph - N/A   Overcast
7:30 PM 66.2 °F 42.8 °F 43% 30.04 in 6.2 mi SSW 6.7 mph - N/A   Mostly Cloudy
8:00 PM 64.4 °F 44.6 °F 49% 30.04 in 6.2 mi SSW 6.7 mph - N/A   Mostly Cloudy
8:30 PM 62.6 °F 42.8 °F 48% 30.04 in 6.2 mi SSW 4.5 mph - N/A   Mostly Cloudy
9:00 PM 60.8 °F 42.8 °F 52% 30.04 in 6.2 mi WSW 4.5 mph - N/A   Mostly Cloudy
9:30 PM 60.8 °F 42.8 °F 52% 30.04 in 6.2 mi WSW 4.5 mph - N/A   Overcast
10:00 PM 59.0 °F 42.8 °F 55% 30.04 in 6.2 mi WSW 4.5 mph - N/A   Overcast
10:30 PM 60.8 °F 42.8 °F 52% 30.04 in 6.2 mi WSW 4.5 mph - N/A   Overcast
11:00 PM 59.0 °F 42.8 °F 55% 30.01 in 6.2 mi WSW 6.7 mph - N/A   Mostly Cloudy
11:30 PM 59.0 °F 42.8 °F 55% 30.01 in 6.2 mi WSW 6.7 mph - N/A   Scattered Clouds